Location: 5810 Zion Rd, Cleves, OH 45002, USA
(39.1922°N, 84.7113°W)
Time: 23:26:35
(UTC-05:00)

Vanguard 3 - Pass Details

Date: 21 December 2019
Orbit: 508 x 3263 km, 33.3° (Epoch: 17 January)

Event Time Altitude Azimuth Distance (km) Brightness Sun altitude
Rises 04:52:29 0° 223° (SW) 2,599 - -34.3°
Reaches altitude 10° 04:54:50 10° 206° (SSW) 1,785 - -33.9°
Maximum altitude 04:57:54 22° 154° (SSE) 1,352 - -33.3°
Exits shadow 04:58:43 21° 138° (SE) 1,448 8.8 -33.1°
Drops below altitude 10° 05:01:46 10° 103° (ESE) 2,306 10.3 -32.5°
Sets 05:05:18 0° 90° (E) 3,629 11.6 -31.8°
